Date,TemperatureHighF,TemperatureAvgF,TemperatureLowF,DewpointHighF,DewpointAvgF,DewpointLowF,HumidityHigh,HumidityAvg,HumidityLow,PressureMaxIn,PressureMinIn,WindSpeedMaxMPH,WindSpeedAvgMPH,GustSpeedMaxMPH,PrecipitationSumIn
2013-3-1,32,29,24,20,-77,-100,78,77,71,30.08,29.90,7,0,12,0.00
2013-3-2,28,25,21,20,-69,-100,83,77,70,30.09,29.97,4,1,0,0.00
2013-3-3,30,25,12,17,-59,-100,92,70,57,30.08,29.93,7,1,0,0.01
2013-3-4,32,28,13,18,-61,-100,89,60,50,30.17,29.99,4,0,0,0.01
2013-3-5,37,32,21,23,-58,-100,88,61,50,30.11,29.76,11,0,14,0.03
2013-3-6,42,36,27,30,-51,-100,86,67,59,30.18,29.82,5,0,0,0.06
2013-3-7,37,35,31,29,-59,-100,88,67,61,30.37,30.15,5,0,0,0.02
2013-3-8,43,37,14,28,-60,-100,89,60,52,30.51,30.33,4,0,0,0.00
2013-3-9,45,40,20,32,-52,-100,92,61,54,30.38,29.99,6,1,0,0.00
2013-3-10,60,49,40,45,-40,-100,75,62,52,30.00,29.73,4,0,0,0.00
2013-3-11,53,49,46,44,-96,-100,91,79,65,29.75,29.39,2,0,0,0.02
2013-3-12,46,41,33,26,-98,-100,91,85,76,29.85,29.60,2,0,0,0.00
2013-3-13,33,26,22,16,-99,-100,77,77,76,30.10,29.77,4,0,0,0.00
2013-3-14,38,28,15,22,-62,-100,79,65,48,30.27,30.00,7,0,0,0.01
2013-3-15,37,36,33,31,-79,-100,83,69,54,30.04,29.78,4,1,0,0.00
2013-3-16,36,29,26,23,-97,-100,89,86,82,29.99,29.69,2,0,0,0.00
2013-3-17,32,26,19,16,-46,-100,88,70,47,30.27,29.94,9,1,0,0.00
2013-3-18,26,25,25,20,-98,-100,81,73,60,30.17,29.47,4,0,0,0.00
2013-3-19,25,23,22,17,-98,-100,81,80,79,29.91,29.51,6,0,13,0.00
2013-3-20,33,24,20,19,-45,-100,79,67,52,29.93,29.81,7,0,15,0.00
2013-3-21,21,19,17,14,-97,-100,85,78,64,29.89,29.75,1,0,0,0.00
2013-3-22,40,28,18,26,-41,-100,85,69,52,30.00,29.83,7,0,0,0.00
2013-3-23,38,33,22,25,-41,-100,87,63,57,30.08,29.98,4,0,0,0.00
2013-3-24,33,27,24,21,-99,-100,89,80,64,30.03,29.57,2,1,0,0.00
2013-3-25,30,28,24,24,-98,-100,89,81,76,29.84,29.50,5,2,12,0.00
2013-3-26,42,34,30,32,-58,-100,83,74,57,30.08,29.84,4,1,0,0.00
2013-3-27,46,39,28,29,-55,-100,84,64,48,30.16,30.05,7,0,13,0.00
2013-3-28,51,42,27,30,-53,-100,80,55,42,30.24,30.14,6,0,0,0.00
2013-3-29,50,43,24,28,-55,-100,80,50,37,30.30,30.13,4,0,0,0.00
2013-3-30,56,46,20,30,-44,-100,89,45,29,30.24,29.87,5,0,0,0.00
2013-3-31,56,48,39,42,-58,-100,80,56,43,29.87,29.56,7,0,13,0.00